Probability
0 0 0 0 0 1 0 0 0 1 4 7 13 22 29 34 36 35 36 40 40 36 29 22 21 25 27 23 18 16 15 13 10 7 4 3 2 2 2 1 1 1 0 0
0 0 0 0 0 1 3 4 4 4 6 9 16 24 31 36 40 39 39 43 44 42 36 27 23 24 23 17 12 11 11 10 8 5 4 3 2 1 1 2 1 1 0 0
0 0 0 0 1 4 9 12 12 11 13 16 22 29 36 41 45 45 46 48 49 48 43 33 25 21 16 10 7 6 7 7 6 4 3 3 3 2 2 2 2 1 0 0
0 0 0 0 3 7 15 21 23 23 27 29 32 37 43 46 49 50 50 51 51 50 44 35 26 19 12 9 7 6 5 5 4 3 3 3 4 3 2 1 1 0 0 0
0 0 0 2 7 11 17 27 33 35 38 42 44 46 46 48 52 53 51 50 49 48 44 37 28 21 15 10 8 6 5 4 3 4 5 4 4 3 1 0 0 0 0 0
0 0 2 8 16 19 21 30 38 40 43 48 52 50 46 47 54 56 54 52 49 47 45 40 33 27 20 12 8 6 5 4 4 6 7 5 3 1 0 0 0 0 0 0
0 1 5 15 25 26 25 31 39 41 44 50 54 52 49 50 56 59 59 55 48 44 42 38 34 27 20 14 10 8 7 6 6 7 6 3 1 0 0 0 0 0 0 0
0 2 7 16 24 25 25 32 40 43 44 48 53 54 54 54 54 57 58 52 45 40 37 35 31 25 18 14 12 11 10 8 7 5 2 1 0 0 0 0 0 0 0 0
4 5 8 14 18 20 22 30 37 40 43 47 49 51 54 53 50 49 50 46 41 38 37 34 29 23 17 13 12 12 10 8 5 2 0 0 0 0 0 0 0 0 0 0
11 10 11 15 18 20 24 28 32 35 39 41 42 43 45 46 44 41 40 40 38 37 35 31 25 20 15 12 11 10 9 7 5 2 0 0 0 0 0 0 0 0 0 0
15 14 15 18 19 21 25 28 30 31 31 30 29 30 32 35 35 32 32 33 32 31 28 23 18 15 12 10 9 8 7 6 5 2 1 1 1 0 0 0 0 0 0 0
12 13 15 17 18 19 22 25 26 26 24 20 18 19 21 24 26 25 25 25 25 23 20 16 13 11 10 9 8 6 5 4 3 1 1 1 1 1 1 0 0 0 0 0
7 9 12 15 16 17 17 18 19 20 19 15 13 14 16 18 19 20 19 19 18 16 16 15 14 12 10 8 7 6 5 3 1 1 0 1 1 0 0 0 0 0 0 0
4 6 9 11 14 15 14 13 12 14 14 12 11 11 12 13 14 14 13 13 12 13 14 16 15 13 11 8 8 8 6 4 2 1 0 0 0 0 0 0 0 0 0 0
3 4 5 8 10 11 9 8 7 8 9 8 8 9 9 9 9 8 9 9 10 11 13 15 15 13 11 9 10 9 7 5 3 1 0 0 0 0 0 0 0 0 0 0
1 1 3 4 6 6 5 3 4 4 4 5 6 7 7 6 5 5 7 9 10 11 12 14 14 11 9 10 11 10 7 5 3 1 0 0 0 0 0 0 0 0 0 0
0 1 2 2 3 3 1 1 2 2 2 3 4 5 5 4 4 4 6 8 9 9 10 11 10 8 7 8 9 8 6 4 2 0 0 0 0 0 0 0 0 0 0 0
0 0 1 1 2 1 0 0 1 1 1 2 3 3 4 4 4 4 4 6 8 9 9 8 7 6 5 5 5 5 4 3 2 1 1 1 0 0 0 0 0 0 0 0
0 0 0 0 0 0 0 0 0 0 1 2 2 2 2 3 3 3 3 5 8 8 7 6 6 5 5 4 3 3 3 3 3 3 2 1 0 0 0 0 0 0 0 0
0 0 0 1 1 0 0 0 0 0 1 2 2 1 1 2 2 3 3 4 7 7 6 5 5 5 4 3 3 3 3 3 3 3 2 1 0 0 0 0 0 0 0 0
0 0 1 2 2 1 0 0 0 0 0 1 1 1 1 2 2 2 2 3 3 3 2 3 3 4 3 3 3 3 3 3 3 2 1 0 0 0 0 0 0 0 0 0
0 0 1 2 3 2 0 0 0 0 0 0 1 1 2 3 2 1 1 1 1 0 0 1 3 3 3 3 3 3 3 3 2 1 0 0 0 0 0 0 0 0 0 0
0 0 1 2 2 1 0 0 0 0 0 0 0 2 3 3 1 1 2 1 0 0 0 1 2 2 2 2 2 2 2 1 1 0 0 0 0 0 0 0 0 0 0 0
0 0 0 1 1 1 0 0 0 0 0 0 1 2 2 3 2 2 3 2 1 0 1 1 1 1 0 1 1 1 1 0 0 0 0 0 0 0 0 0 0 0 0 0
0 0 0 0 1 1 1 0 0 0 0 0 1 2 2 3 3 3 2 2 1 0 0 0 0 0 0 0 0 0 0 0 0 0 0 0 0 0 0 0 0 0 0 0
0 0 0 0 0 0 0 0 0 0 0 0 1 1 2 3 3 1 1 1 0 0 0 0 0 0 0 0 0 0 0 0 0 0 0 0 0 0 0 0 0 0 0 0
0 0 0 0 0 0 0 0 0 0 0 0 0 0 1 2 1 0 0 0 0 0 0 0 0 0 0 0 0 0 0 0 0 0 0 0 0 0 0 0 0 0 0 0
Wind_Speed
5 4 1 2 4 4 5 8 9 9 9 9 10 10 11 10 9 8 8 8 8 7 6 6 6 6 6 6 6 6 6 5 4 4 4 3 3 3 3 3 3 3 3 2
1 1 2 3 5 5 3 4 5 5 5 6 6 6 8 10 11 10 9 9 8 8 8 7 7 7 7 6 6 6 6 5 4 4 4 3 3 3 3 3 3 3 3 2
1 3 4 3 4 2 2 2 4 6 7 5 7 7 8 9 10 10 9 8 9 9 8 8 7 7 7 6 6 6 6 6 5 5 5 3 3 3 3 3 3 3 2 3
2 3 2 7 3 1 2 4 2 3 3 7 9 7 5 7 9 8 8 9 8 7 7 6 5 6 6 6 6 6 6 5 5 5 5 4 4 3 3 3 3 3 3 2
4 2 3 5 4 3 2 4 6 2 4 6 9 10 5 2 6 8 9 8 7 7 7 7 7 8 8 6 6 6 6 5 5 5 5 5 4 4 3 3 3 2 2 2
4 3 3 4 7 4 5 3 7 3 3 4 7 6 2 1 4 6 6 7 7 7 7 8 7 8 9 7 6 6 6 6 5 6 6 5 4 4 3 3 3 3 2 2
4 2 4 5 7 5 5 3 5 3 3 5 5 4 3 2 4 6 7 7 8 8 7 7 7 8 8 7 6 5 5 6 5 5 5 5 4 3 4 3 3 3 2 2
4 3 6 6 5 4 4 2 2 5 5 6 6 6 5 6 7 8 8 7 7 7 6 5 7 8 8 6 5 5 6 6 5 5 5 5 4 4 3 4 3 2 2 2
6 5 4 1 3 2 3 4 3 4 4 6 7 6 5 5 6 7 7 6 6 7 7 5 5 7 7 5 6 6 6 6 5 5 4 4 4 4 3 3 2 2 2 1
4 1 1 4 4 4 4 5 4 5 5 7 6 5 5 5 5 6 5 5 5 7 7 5 4 5 6 6 6 6 6 6 5 5 4 4 3 3 3 2 2 2 2 1
3 1 3 4 4 3 5 6 7 7 6 6 6 5 5 4 4 4 5 5 5 6 6 5 5 5 5 6 6 7 6 5 5 5 5 4 3 2 2 1 2 3 2 2
2 3 3 1 1 4 6 5 6 6 6 4 4 5 5 4 4 4 4 5 6 6 6 5 5 5 4 5 6 6 5 4 4 4 4 4 4 3 6 3 2 2 2 3
3 2 2 1 3 5 5 4 5 5 3 3 3 4 5 4 4 4 5 5 5 6 6 5 5 5 4 5 6 6 5 4 3 4 4 4 3 4 2 3 6 5 3 3
2 3 2 1 2 3 4 4 4 5 3 3 4 4 5 5 5 5 4 4 4 5 5 4 4 4 3 4 5 5 5 5 5 4 4 4 3 3 3 3 1 1 3 2
2 2 2 2 2 3 3 3 4 3 3 3 3 4 4 5 5 4 3 4 4 4 4 4 4 3 2 4 5 5 4 4 4 4 3 3 3 3 2 2 2 1 1 1
2 3 3 3 3 2 2 3 3 1 1 2 3 3 3 5 4 4 3 4 5 4 3 3 3 3 3 4 5 4 3 6 6 4 4 3 3 3 3 2 2 2 2 1
3 2 1 1 0 0 0 1 2 2 1 2 2 3 4 5 5 4 3 3 3 3 2 3 3 2 3 4 5 4 3 4 6 4 3 3 3 3 3 3 3 2 1 2
3 3 2 2 2 1 1 1 1 2 2 2 3 4 4 4 4 3 3 3 3 2 1 2 3 3 3 3 3 3 3 3 3 3 3 3 3 3 3 3 3 3 2 1
1 2 1 0 1 2 2 2 2 2 3 4 4 4 3 3 3 4 4 4 4 2 1 2 5 5 4 3 4 3 4 4 3 3 3 4 3 3 3 3 3 3 3 2
2 2 1 1 0 1 1 2 2 2 2 4 4 4 3 3 3 4 4 3 2 2 3 4 4 4 3 3 4 3 4 4 4 3 3 3 3 3 3 3 3 3 3 3
3 2 2 1 1 0 1 2 3 3 3 4 4 4 3 3 3 3 4 2 1 2 4 5 4 3 3 3 3 3 3 3 4 3 3 3 2 2 2 3 3 3 3 3
2 1 1 1 2 2 1 1 3 4 4 4 4 4 4 4 4 3 3 2 2 4 3 3 2 3 4 3 2 2 3 3 3 3 3 3 3 2 2 2 2 2 3 3
2 1 1 1 1 2 2 2 3 4 4 4 4 4 4 3 3 3 2 1 2 5 3 2 3 5 4 3 2 2 3 2 2 2 2 2 2 2 2 3 2 3 3 3
1 1 1 1 2 3 3 2 2 3 4 4 3 4 4 3 2 1 2 4 5 5 3 3 4 4 4 2 2 2 2 2 2 2 2 2 2 2 2 2 2 2 2 3
1 1 2 2 3 2 2 3 3 4 4 3 3 3 3 3 3 2 3 4 5 5 3 3 4 4 3 3 2 2 2 2 2 2 2 2 2 1 1 2 2 2 2 2
1 1 1 2 2 2 2 2 2 2 3 3 2 2 2 3 3 3 3 4 4 4 3 2 3 3 3 3 2 2 2 2 2 2 2 1 1 1 1 0 1 1 1 2
1 1 2 3 3 2 2 3 3 3 2 3 3 2 3 3 3 3 4 3 3 3 3 2 3 3 3 2 2 2 2 2 2 2 2 2 2 1 1 1 1 1 0 0
Wind_Direction
193 203 186 269 289 260 189 183 183 214 202 206 190 172 168 164 162 157 161 159 159 158 159 160 158 154 148 147 149 148 145 149 156 150 143 138 130 126 122 121 121 124 118 105
6 342 17 325 308 304 266 210 195 181 217 213 183 155 153 161 163 167 172 168 161 159 165 167 163 155 149 147 148 141 140 143 145 132 126 127 126 119 113 112 110 106 109 101
309 343 37 308 278 267 296 297 176 189 219 170 144 153 159 163 164 171 175 167 167 168 167 169 165 158 157 154 145 140 146 144 140 136 133 130 125 117 117 116 109 107 107 98
104 66 214 247 272 153 111 21 20 157 162 154 151 143 128 140 156 160 164 167 169 163 158 157 154 149 144 139 138 139 142 142 141 138 136 132 127 122 116 108 111 111 105 106
107 140 274 304 336 346 104 23 360 72 114 119 122 88 60 100 148 155 159 163 162 158 153 149 149 140 127 129 134 138 141 143 145 143 139 136 130 121 115 110 107 112 108 103
113 137 215 266 302 304 101 31 337 37 109 121 108 105 181 195 132 125 128 135 143 142 139 141 147 139 130 135 140 146 147 147 145 143 142 140 134 126 119 118 116 107 91 86
143 173 257 280 311 23 103 214 310 46 81 94 97 144 174 125 110 114 115 122 128 130 136 143 140 131 130 136 148 149 139 135 133 133 135 131 125 125 123 117 108 99 90 58
144 168 249 308 26 79 170 205 43 59 70 84 90 84 78 90 101 109 111 116 122 122 120 128 133 131 132 139 139 128 124 124 126 131 134 128 125 122 120 122 118 107 88 59
168 194 232 4 92 125 136 102 72 69 71 93 91 84 80 81 97 107 113 116 116 119 118 116 126 133 136 143 133 126 122 122 120 114 109 116 122 124 118 115 121 121 109 104
95 89 67 54 64 57 78 91 80 81 84 91 96 98 98 91 97 105 107 111 114 118 121 119 117 123 133 134 128 124 125 126 127 121 109 98 97 110 119 126 134 140 137 141
84 38 41 26 41 54 59 65 61 62 69 80 97 105 103 98 106 113 113 109 113 119 122 126 121 116 123 128 129 127 126 125 123 118 120 107 89 76 112 137 169 171 178 173
187 228 170 218 350 68 70 64 68 69 64 79 110 115 106 104 110 112 115 115 116 115 119 126 125 120 124 129 129 130 131 132 131 127 123 122 118 86 45 45 47 116 141 149
169 196 145 114 61 68 73 63 63 70 81 91 98 110 111 110 106 106 108 114 128 131 132 134 131 132 138 141 140 140 143 146 141 137 136 138 139 137 119 43 45 58 78 112
91 92 83 59 74 68 74 71 64 63 66 94 112 108 108 106 111 112 118 122 124 122 123 128 132 142 154 142 139 141 142 144 141 144 146 148 152 151 148 145 124 38 34 72
79 110 148 129 82 65 70 76 67 56 70 78 97 111 116 120 129 130 129 122 113 115 126 134 137 153 152 136 135 138 140 143 144 143 144 145 145 147 149 147 146 137 85 31
111 82 85 79 67 51 57 81 88 80 83 98 104 119 133 133 131 125 128 133 132 143 158 157 163 172 149 139 136 135 140 144 144 147 146 143 144 149 154 156 156 157 162 162
109 96 90 87 91 97 67 133 139 139 124 118 137 129 122 121 118 120 131 131 134 140 148 157 163 154 141 138 141 143 141 144 141 142 147 151 152 156 158 154 152 156 174 175
146 160 167 178 182 172 156 137 132 135 147 139 127 119 121 136 146 153 150 129 111 100 104 137 136 129 129 129 132 136 137 135 139 142 142 141 146 154 156 158 164 162 158 154
70 86 77 74 186 179 175 174 174 161 148 136 131 135 142 150 155 148 136 129 132 143 179 127 121 117 116 113 114 125 125 125 124 126 128 132 132 137 146 157 168 173 168 162
34 48 43 24 331 145 159 165 145 132 143 135 127 122 124 135 138 137 131 133 158 172 157 133 122 114 114 114 111 124 132 137 137 136 131 135 140 147 157 166 174 180 177 178
21 24 36 33 4 31 116 135 136 137 136 129 133 143 147 142 133 135 130 127 99 110 122 125 124 124 116 115 117 125 131 137 141 145 149 151 152 156 162 163 170 181 183 186
3 10 20 38 63 55 52 94 120 123 116 115 124 130 128 123 121 118 117 140 135 120 116 117 121 123 117 117 119 128 135 141 148 151 155 158 159 160 164 164 171 182 185 189
316 309 341 46 102 106 78 79 98 113 116 122 128 130 131 132 132 132 129 121 119 117 113 118 120 116 110 105 105 112 117 120 124 135 147 157 158 161 169 175 178 179 188 194
334 52 94 85 93 93 86 80 89 102 109 115 123 128 129 120 99 106 128 130 122 115 106 115 117 112 109 99 94 95 105 116 122 123 125 130 135 148 166 175 182 187 193 197
352 53 78 83 87 97 109 98 89 91 97 96 99 109 121 130 134 136 124 125 123 113 97 107 116 111 100 91 88 92 105 117 122 125 128 135 143 152 169 177 184 191 196 203
45 70 95 114 124 126 118 104 98 97 101 100 96 97 102 103 109 113 115 121 122 117 108 99 99 101 93 92 88 94 102 103 101 107 114 118 126 138 151 175 189 179 192 210
55 66 72 74 70 72 84 96 100 96 101 114 114 115 115 111 111 114 115 115 115 113 110 109 108 107 98 88 80 81 85 83 82 85 82 82 82 82 84 103 122 124 134 126